KGBD

Great Bend Municipal Airport

Airport
ICAO code
KGBD
Summary
ICAO Region
NAM
ICAO Territory
Location

Great Bend, Kansas,

Elevation
1887 ft
Coordinates
38° 20' 39" N , 98° 51' 33" W
KCC
Airport CFIT
Altimeter Temperature Error Correction
Metar
Observation
KGBD 232256Z AUTO 05013KT 10SM CLR 10/00 A2993 RMK AO2 SLP141 T01000000
Station
Great Bend, Great Bend Municipal Airport
Date/Time
2023-03-23 22:56:00
Wind direction
50°
Wind speed
13 kts
Lowest cloud amount
n/a
Temperature
10°C
Dew point
0°C
Humidity
49%
Weather condition
n/a

Description

Great Bend Municipal Airport is a public-use airport located 7 km west of the central business district of Great Bend, a city in Barton County, Kansas.

Climatology

Located near the convergence of North America's humid continental (Köppen climate classification Dfa), humid subtropical (Köppen climate classification Cfa), and semi-arid (Köppen climate classification BSk) climate zones, Great Bend experiences hot summers and cold, dry winters.

Airport map

Aerial View

SKYbrary Partners:

Safety knowledge contributed by: